| time (UTC) | temp F | wind direction | speed MPH | gust MPH | rain 1hr in | rain 24hr in | rain mn in | humidity % | barometer mb |
| 20260906014544 | 91 | 39 | 6.0 | 11.0 | 0.00 | 0.00 | 0.00 | 55 | 1011.3 |
| 20260906013036 | 91 | 68 | 2.0 | 10.0 | 0.00 | 0.00 | 0.00 | 53 | 1011.3 |
| 20260906011535 | 91 | 88 | 2.0 | 10.0 | 0.00 | 0.00 | 0.00 | 52 | 1011.2 |
| 20260906010037 | 92 | 68 | 3.0 | 12.0 | 0.00 | 0.00 | 0.00 | 52 | 1011.1 |
| 20260906004532 | 94 | 70 | 5.0 | 11.0 | 0.00 | 0.00 | 0.00 | 49 | 1010.9 |
| 20260906003035 | 95 | 96 | 4.0 | 13.0 | 0.00 | 0.00 | 0.00 | 45 | 1010.8 |
| 20260906001535 | 96 | 56 | 3.0 | 8.0 | 0.00 | 0.00 | 0.00 | 44 | 1010.7 |
| 20260906000037 | 96 | 92 | 2.0 | 10.0 | 0.00 | 0.00 | 0.00 | 43 | 1010.6 |
| 20260905234535 | 96 | 96 | 4.0 | 9.0 | 0.00 | 0.00 | 0.00 | 41 | 1010.6 |
| 20260905233039 | 97 | 56 | 3.0 | 10.0 | 0.00 | 0.00 | 0.00 | 41 | 1010.4 |
| 20260905231541 | 98 | 68 | 3.0 | 6.0 | 0.00 | 0.00 | 0.00 | 40 | 1010.4 |
| 20260905230041 | 98 | 102 | 3.0 | 7.0 | 0.00 | 0.00 | 0.00 | 40 | 1010.6 |
| 20260905224533 | 100 | 37 | 1.0 | 4.0 | 0.00 | 0.00 | 0.00 | 38 | 1010.4 |
| 20260905223034 | 100 | 208 | 1.0 | 4.0 | 0.00 | 0.00 | 0.00 | 38 | 1010.4 |
| 20260905221537 | 100 | 68 | 2.0 | 7.0 | 0.00 | 0.00 | 0.00 | 37 | 1010.6 |
| 20260905220035 | 100 | 209 | 1.0 | 4.0 | 0.00 | 0.00 | 0.00 | 36 | 1010.6 |
| 20260905214535 | 99 | 107 | 2.0 | 10.0 | 0.00 | 0.00 | 0.00 | 37 | 1010.7 |
| 20260905213036 | 100 | 252 | 1.0 | 6.0 | 0.00 | 0.00 | 0.00 | 37 | 1010.7 |
| 20260905211538 | 100 | 98 | 1.0 | 5.0 | 0.00 | 0.00 | 0.00 | 36 | 1010.9 |
| 20260905210031 | 99 | 0 | 2.0 | 6.0 | 0.00 | 0.00 | 0.00 | 37 | 1011.1 |
| 20260905204534 | 100 | 0 | 0.0 | 4.0 | 0.00 | 0.00 | 0.00 | 38 | 1011.3 |
| 20260905203031 | 100 | 333 | 2.0 | 6.0 | 0.00 | 0.00 | 0.00 | 37 | 1011.7 |
| 20260905201535 | 100 | 346 | 1.0 | 6.0 | 0.00 | 0.00 | 0.00 | 38 | 1012.0 |
| 20260905200036 | 100 | 136 | 0.0 | 3.0 | 0.00 | 0.00 | 0.00 | 39 | 1012.1 |
| 20260905194533 | 98 | 342 | 1.0 | 5.0 | 0.00 | 0.00 | 0.00 | 41 | 1012.4 |
| 20260905193038 | 99 | 269 | 1.0 | 6.0 | 0.00 | 0.00 | 0.00 | 40 | 1012.7 |
| 20260905191533 | 97 | 310 | 3.0 | 6.0 | 0.00 | 0.00 | 0.00 | 43 | 1013.0 |
| 20260905190033 | 97 | 186 | 1.0 | 4.0 | 0.00 | 0.00 | 0.00 | 44 | 1013.3 |
| 20260905184536 | 96 | 259 | 2.0 | 6.0 | 0.00 | 0.00 | 0.00 | 45 | 1013.5 |
| 20260905183033 | 96 | 278 | 1.0 | 4.0 | 0.00 | 0.00 | 0.00 | 46 | 1013.6 |
| 20260905181539 | 95 | 262 | 0.0 | 6.0 | 0.00 | 0.00 | 0.00 | 47 | 1013.9 |
| 20260905180035 | 96 | 346 | 1.0 | 4.0 | 0.00 | 0.00 | 0.00 | 47 | 1014.3 |
| 20260905174535 | 94 | 89 | 1.0 | 4.0 | 0.00 | 0.00 | 0.00 | 52 | 1014.5 |
| 20260905173034 | 93 | 83 | 1.0 | 6.0 | 0.00 | 0.00 | 0.00 | 52 | 1014.7 |
| 20260905171537 | 93 | 0 | 0.0 | 6.0 | 0.00 | 0.00 | 0.00 | 56 | 1014.8 |
| 20260905170037 | 92 | 183 | 1.0 | 6.0 | 0.00 | 0.00 | 0.00 | 57 | 1015.0 |
| 20260905164535 | 91 | 194 | 1.0 | 4.0 | 0.00 | 0.00 | 0.00 | 59 | 1015.2 |
| 20260905163036 | 91 | 265 | 1.0 | 3.0 | 0.00 | 0.00 | 0.00 | 61 | 1015.3 |
| 20260905161534 | 90 | 136 | 2.0 | 6.0 | 0.00 | 0.00 | 0.00 | 62 | 1015.3 |
| 20260905160036 | 90 | 0 | 0.0 | 5.0 | 0.00 | 0.00 | 0.00 | 64 | 1015.3 |
| 20260905154542 | 89 | 0 | 0.0 | 4.0 | 0.00 | 0.00 | 0.00 | 68 | 1015.2 |
| 20260905153032 | 88 | 207 | 1.0 | 5.0 | 0.00 | 0.00 | 0.00 | 68 | 1015.4 |
| 20260905151537 | 87 | 226 | 1.0 | 5.0 | 0.00 | 0.00 | 0.00 | 71 | 1015.4 |
| 20260905150037 | 86 | 41 | 2.0 | 4.0 | 0.00 | 0.00 | 0.00 | 73 | 1015.5 |
| 20260905144534 | 84 | 203 | 0.0 | 5.0 | 0.00 | 0.00 | 0.00 | 78 | 1015.2 |
| 20260905143035 | 84 | 245 | 0.0 | 2.0 | 0.00 | 0.00 | 0.00 | 80 | 1015.2 |
| 20260905141532 | 82 | 0 | 0.0 | 3.0 | 0.00 | 0.00 | 0.00 | 83 | 1015.2 |
| 20260905140036 | 82 | 0 | 0.0 | 0.0 | 0.00 | 0.00 | 0.00 | 84 | 1015.1 |
| 20260905134543 | 82 | 0 | 0.0 | 3.0 | 0.00 | 0.00 | 0.00 | 85 | 1014.9 |
| 20260905133034 | 81 | 221 | 0.0 | 1.0 | 0.00 | 0.00 | 0.00 | 87 | 1014.8 |
| 20260905131535 | 79 | 0 | 0.0 | 2.0 | 0.00 | 0.00 | 0.00 | 88 | 1014.7 |
| 20260905130034 | 79 | 96 | 0.0 | 2.0 | 0.00 | 0.00 | 0.00 | 89 | 1014.5 |
| 20260905124534 | 79 | 0 | 0.0 | 1.0 | 0.00 | 0.00 | 0.00 | 89 | 1014.2 |
| 20260905123037 | 78 | 0 | 0.0 | 1.0 | 0.00 | 0.00 | 0.00 | 89 | 1014.2 |
| 20260905121533 | 78 | 219 | 0.0 | 1.0 | 0.00 | 0.00 | 0.00 | 89 | 1014.1 |
| 20260905120037 | 78 | 0 | 0.0 | 1.0 | 0.00 | 0.00 | 0.00 | 90 | 1013.8 |
| 20260905114534 | 78 | 0 | 0.0 | 0.0 | 0.00 | 0.00 | 0.00 | 90 | 1013.7 |
| 20260905113033 | 77 | 0 | 0.0 | 0.0 | 0.00 | 0.00 | 0.00 | 90 | 1013.8 |
| 20260905111536 | 78 | 0 | 0.0 | 0.0 | 0.00 | 0.00 | 0.00 | 89 | 1013.7 |
| 20260905110037 | 78 | 0 | 0.0 | 0.0 | 0.00 | 0.00 | 0.00 | 89 | 1013.6 |
| 20260905104534 | 78 | 0 | 0.0 | 0.0 | 0.00 | 0.00 | 0.00 | 89 | 1013.5 |
| 20260905103041 | 78 | 0 | 0.0 | 0.0 | 0.00 | 0.00 | 0.00 | 89 | 1013.5 |
| 20260905101535 | 78 | 0 | 0.0 | 0.0 | 0.00 | 0.00 | 0.00 | 88 | 1013.6 |
| 20260905100039 | 79 | 0 | 0.0 | 0.0 | 0.00 | 0.00 | 0.00 | 88 | 1013.4 |
| 20260905094533 | 79 | 0 | 0.0 | 1.0 | 0.00 | 0.00 | 0.00 | 87 | 1013.2 |
| 20260905093042 | 79 | 0 | 0.0 | 3.0 | 0.00 | 0.00 | 0.00 | 87 | 1013.2 |
| 20260905091531 | 79 | 0 | 0.0 | 3.0 | 0.00 | 0.00 | 0.00 | 86 | 1013.2 |
| 20260905090037 | 79 | 0 | 0.0 | 3.0 | 0.00 | 0.00 | 0.00 | 86 | 1013.4 |
| 20260905084534 | 80 | 239 | 0.0 | 4.0 | 0.00 | 0.00 | 0.00 | 85 | 1013.4 |
| 20260905083032 | 80 | 0 | 0.0 | 3.0 | 0.00 | 0.00 | 0.00 | 85 | 1013.5 |
| 20260905081533 | 80 | 272 | 0.0 | 2.0 | 0.00 | 0.00 | 0.00 | 84 | 1013.5 |
| 20260905080030 | 80 | 239 | 0.0 | 4.0 | 0.00 | 0.00 | 0.00 | 84 | 1013.7 |
| 20260905074532 | 80 | 270 | 1.0 | 5.0 | 0.00 | 0.00 | 0.00 | 83 | 1013.6 |
| 20260905073034 | 80 | 0 | 1.0 | 4.0 | 0.00 | 0.00 | 0.00 | 83 | 1013.6 |
| 20260905071535 | 80 | 160 | 1.0 | 3.0 | 0.00 | 0.00 | 0.00 | 83 | 1013.9 |
| 20260905070037 | 80 | 0 | 0.0 | 2.0 | 0.00 | 0.00 | 0.00 | 82 | 1014.0 |
| 20260905064533 | 81 | 212 | 0.0 | 4.0 | 0.00 | 0.00 | 0.00 | 81 | 1014.0 |
| 20260905063036 | 81 | 0 | 1.0 | 3.0 | 0.00 | 0.00 | 0.00 | 80 | 1014.1 |
| 20260905061536 | 81 | 246 | 0.0 | 2.0 | 0.00 | 0.00 | 0.00 | 79 | 1014.2 |
| 20260905060033 | 81 | 0 | 0.0 | 1.0 | 0.00 | 0.00 | 0.00 | 78 | 1014.2 |
| 20260905054534 | 81 | 0 | 0.0 | 2.0 | 0.00 | 0.00 | 0.00 | 77 | 1014.2 |
| 20260905053036 | 82 | 0 | 0.0 | 3.0 | 0.00 | 0.00 | 0.00 | 76 | 1014.3 |
| 20260905051535 | 82 | 0 | 0.0 | 2.0 | 0.00 | 0.00 | 0.00 | 75 | 1014.5 |
| 20260905050032 | 82 | 0 | 0.0 | 6.0 | 0.00 | 0.00 | 0.00 | 74 | 1014.4 |
| 20260905044540 | 82 | 68 | 2.0 | 5.0 | 0.00 | 0.00 | 0.00 | 73 | 1014.3 |
| 20260905043040 | 83 | 0 | 1.0 | 4.0 | 0.00 | 0.00 | 0.00 | 73 | 1014.3 |
| 20260905041533 | 83 | 37 | 1.0 | 5.0 | 0.00 | 0.00 | 0.00 | 72 | 1014.2 |
| 20260905040034 | 83 | 0 | 1.0 | 5.0 | 0.00 | 0.00 | 0.00 | 71 | 1014.1 |
| 20260905034535 | 84 | 205 | 1.0 | 4.0 | 0.00 | 0.00 | 0.00 | 71 | 1014.0 |
| 20260905033034 | 84 | 58 | 0.0 | 5.0 | 0.00 | 0.00 | 0.00 | 70 | 1014.0 |
| 20260905031539 | 84 | 343 | 1.0 | 4.0 | 0.00 | 0.00 | 0.00 | 68 | 1014.2 |
| 20260905030035 | 85 | 85 | 2.0 | 6.0 | 0.00 | 0.00 | 0.00 | 67 | 1014.0 |
| 20260905024536 | 85 | 58 | 1.0 | 5.0 | 0.00 | 0.00 | 0.00 | 66 | 1013.8 |
| 20260905023035 | 85 | 116 | 1.0 | 5.0 | 0.00 | 0.00 | 0.00 | 66 | 1013.7 |
| 20260905021537 | 85 | 65 | 1.0 | 3.0 | 0.00 | 0.00 | 0.00 | 67 | 1013.2 |
| 20260905020045 | 86 | 60 | 0.0 | 4.0 | 0.00 | 0.00 | 0.00 | 66 | 1013.3 |